2022-098F (53449 NORAD) Tracking and Keplerian Element Data

This shows tracking and keplerian element data for the satellite.

Feedback or suggestion? Click here.




ElementValue
Catalog53449
Name2022-098F
Epoch Orbit1550
Epoch Day325.08298789
Epoch Year2022
RAAN59.5528
Inclination97.5276
Eccentricity0.0008295
Argument of Perigee287.2428
Mean Anonmoly195.3535
Mean Motion15.0958591
Decay Rate4.849E-05
L11 53449U 22098F 22325.08298789 .00004849 00000+0 30555-3 0 9996
L22 53449 97.5276 59.5528 0008295 287.2428 195.3535 15.09585910 15509



Live tracking and technical data element details for 2022-098F (NORAD 53449). 2022-098F can be tracked NOW for your location showing map with azimuth and elevation plus other details from your city location.







IsCatalogInMostPopularTable: catalog: 53449, numindb: 4
Update: records affected: 1



GetName: 53449 2022-098F

Hit Count: updated at: Thu, 08 Dec 2022 19:10:39 GMT